METOP-C

Last updated on Fri Jun 19 2026 20:03:57 GMT+0000 (Coordinated Universal Time)

1 43689U 18087A 26170.53160566 .00000071 00000+0 52220-4 0 9994 2 43689 98.6644 230.0924 0001845 126.4901 233.6447 14.21512682395165
UTC large
Height (km)
Speed (km/s)
/
Latitude / Longitude
Inclination (degrees)
Orbital Period (minutes)
Azimuth
Elevation
Range (km)
Doppler Factor

Next 0 passes for location: London (51.5072 / 0.1276)

Sorry there are no passes over London.
METOP-C